Year,Month,Day,Hour,Minute,Value (Times are PST for temperature in C)
2021,08,10,00,00,15.60
2021,08,10,00,01,15.60
2021,08,10,00,02,15.60
2021,08,10,00,03,15.60
2021,08,10,00,04,15.50
2021,08,10,00,05,15.50
2021,08,10,00,06,15.50
2021,08,10,00,07,15.50
2021,08,10,00,08,15.50
2021,08,10,00,09,15.50
2021,08,10,00,10,15.40
2021,08,10,00,11,15.40
2021,08,10,00,12,15.40
2021,08,10,00,13,15.40
2021,08,10,00,14,15.40
2021,08,10,00,15,15.30
2021,08,10,00,16,15.30
2021,08,10,00,17,15.30
2021,08,10,00,18,15.30
2021,08,10,00,19,15.30
2021,08,10,00,20,15.30
2021,08,10,00,21,15.30
2021,08,10,00,22,15.20
2021,08,10,00,23,15.20
2021,08,10,00,24,15.20
2021,08,10,00,25,15.20
2021,08,10,00,26,15.20
2021,08,10,00,27,15.20
2021,08,10,00,28,15.20
2021,08,10,00,29,15.20
2021,08,10,00,30,15.20
2021,08,10,00,31,15.20
2021,08,10,00,32,15.20
2021,08,10,00,33,15.20
2021,08,10,00,34,15.20
2021,08,10,00,35,15.20
2021,08,10,00,36,15.20
2021,08,10,00,37,15.20
2021,08,10,00,38,15.20
2021,08,10,00,39,15.10
2021,08,10,00,40,15.10
2021,08,10,00,41,15.10
2021,08,10,00,42,15.10
2021,08,10,00,43,15.10
2021,08,10,00,44,15.10
2021,08,10,00,45,15.10
2021,08,10,00,46,15.10
2021,08,10,00,47,15.10
2021,08,10,00,48,15.10
2021,08,10,00,49,15.10
2021,08,10,00,50,15.10
2021,08,10,00,51,15.10
2021,08,10,00,52,15.10
2021,08,10,00,53,15.10
2021,08,10,00,54,15.10
2021,08,10,00,55,15.10
2021,08,10,00,56,15.10
2021,08,10,00,57,15.10
2021,08,10,00,58,15.10
2021,08,10,00,59,15.10
2021,08,10,01,00,15.10
2021,08,10,01,01,15.10
2021,08,10,01,02,15.10
2021,08,10,01,03,15.10
2021,08,10,01,04,15.10
2021,08,10,01,05,15.10
2021,08,10,01,06,15.10
2021,08,10,01,07,15.10
2021,08,10,01,08,15.10
2021,08,10,01,09,15.00
2021,08,10,01,10,15.00
2021,08,10,01,11,15.00
2021,08,10,01,12,15.00
2021,08,10,01,13,15.00
2021,08,10,01,14,15.00
2021,08,10,01,15,15.00
2021,08,10,01,16,15.00
2021,08,10,01,17,15.00
2021,08,10,01,18,15.00
2021,08,10,01,19,15.00
2021,08,10,01,20,15.00
2021,08,10,01,21,15.00
2021,08,10,01,22,15.00
2021,08,10,01,23,15.00
2021,08,10,01,24,15.00
2021,08,10,01,25,15.10
2021,08,10,01,26,15.10
2021,08,10,01,27,15.10
2021,08,10,01,28,15.10
2021,08,10,01,29,15.10
2021,08,10,01,30,15.10
2021,08,10,01,31,15.10
2021,08,10,01,32,15.10
2021,08,10,01,33,15.10
2021,08,10,01,34,15.10
2021,08,10,01,35,15.10
2021,08,10,01,36,15.10
2021,08,10,01,37,15.00
2021,08,10,01,38,15.00
2021,08,10,01,39,15.00
2021,08,10,01,40,14.90
2021,08,10,01,41,14.90
2021,08,10,01,42,14.90
2021,08,10,01,43,14.80
2021,08,10,01,44,14.80
2021,08,10,01,45,14.80
2021,08,10,01,46,14.70
2021,08,10,01,47,14.70
2021,08,10,01,48,14.70
2021,08,10,01,49,14.60
2021,08,10,01,50,14.60
2021,08,10,01,51,14.60
2021,08,10,01,52,14.50
2021,08,10,01,53,14.40
2021,08,10,01,54,14.40
2021,08,10,01,55,14.40
2021,08,10,01,56,14.30
2021,08,10,01,57,14.30
2021,08,10,01,58,14.20
2021,08,10,01,59,14.20
2021,08,10,02,00,14.10
2021,08,10,02,01,14.00
2021,08,10,02,02,13.90
2021,08,10,02,03,13.80
2021,08,10,02,04,13.80
2021,08,10,02,05,13.70
2021,08,10,02,06,13.70
2021,08,10,02,07,13.60
2021,08,10,02,08,13.50
2021,08,10,02,09,13.50
2021,08,10,02,10,13.40
2021,08,10,02,11,13.40
2021,08,10,02,12,13.30
2021,08,10,02,13,13.30
2021,08,10,02,14,13.20
2021,08,10,02,15,13.20
2021,08,10,02,16,13.20
2021,08,10,02,17,13.10
2021,08,10,02,18,13.10
2021,08,10,02,19,13.10
2021,08,10,02,20,13.00
2021,08,10,02,21,13.00
2021,08,10,02,22,12.90
2021,08,10,02,23,12.90
2021,08,10,02,24,12.90
2021,08,10,02,25,12.80
2021,08,10,02,26,12.80
2021,08,10,02,27,12.80
2021,08,10,02,28,12.80
2021,08,10,02,29,12.70
2021,08,10,02,30,12.70
2021,08,10,02,31,12.70
2021,08,10,02,32,12.70
2021,08,10,02,33,12.60
2021,08,10,02,34,12.60
2021,08,10,02,35,12.60
2021,08,10,02,36,12.60
2021,08,10,02,37,12.60
2021,08,10,02,38,12.60
2021,08,10,02,39,12.60
2021,08,10,02,40,12.60
2021,08,10,02,41,12.60
2021,08,10,02,42,12.60
2021,08,10,02,43,12.50
2021,08,10,02,44,12.50
2021,08,10,02,45,12.50
2021,08,10,02,46,12.50
2021,08,10,02,47,12.50
2021,08,10,02,48,12.50
2021,08,10,02,49,12.40
2021,08,10,02,50,12.40
2021,08,10,02,51,12.40
2021,08,10,02,52,12.40
2021,08,10,02,53,12.40
2021,08,10,02,54,12.40
2021,08,10,02,55,12.40
2021,08,10,02,56,12.40
2021,08,10,02,57,12.40
2021,08,10,02,58,12.40
2021,08,10,02,59,12.30
2021,08,10,03,00,12.30
2021,08,10,03,01,12.30
2021,08,10,03,02,12.30
2021,08,10,03,06,12.30
2021,08,10,03,07,12.30
2021,08,10,03,08,12.30
2021,08,10,03,09,12.30
2021,08,10,03,10,12.30
2021,08,10,03,11,12.30
2021,08,10,03,12,12.30
2021,08,10,03,13,12.20
2021,08,10,03,14,12.20
2021,08,10,03,15,12.20
2021,08,10,03,16,12.20
2021,08,10,03,17,12.20
2021,08,10,03,18,12.20
2021,08,10,03,19,12.20
2021,08,10,03,20,12.20
2021,08,10,03,21,12.20
2021,08,10,03,22,12.20
2021,08,10,03,23,12.20
2021,08,10,03,24,12.20
2021,08,10,03,25,12.20
2021,08,10,03,26,12.20
2021,08,10,03,27,12.20
2021,08,10,03,28,12.20
2021,08,10,03,29,12.20
2021,08,10,03,30,12.20
2021,08,10,03,31,12.20
2021,08,10,03,32,12.20
2021,08,10,03,33,12.20
2021,08,10,03,34,12.20
2021,08,10,03,35,12.20
2021,08,10,03,36,12.20
2021,08,10,03,37,12.10
2021,08,10,03,38,12.10
2021,08,10,03,39,12.10
2021,08,10,03,40,12.10
2021,08,10,03,41,12.20
2021,08,10,03,42,12.10
2021,08,10,03,43,12.20
2021,08,10,03,44,12.10
2021,08,10,03,45,12.20
2021,08,10,03,46,12.20
2021,08,10,03,47,12.20
2021,08,10,03,48,12.20
2021,08,10,03,49,12.20
2021,08,10,03,50,12.20
2021,08,10,03,51,12.20
2021,08,10,03,52,12.20
2021,08,10,03,53,12.20
2021,08,10,03,54,12.20
2021,08,10,03,55,12.20
2021,08,10,03,56,12.20
2021,08,10,03,57,12.20
2021,08,10,03,58,12.20
2021,08,10,03,59,12.20
2021,08,10,04,00,12.20
2021,08,10,04,01,12.20
2021,08,10,04,02,12.30
2021,08,10,04,03,12.30
2021,08,10,04,04,12.30
2021,08,10,04,05,12.30
2021,08,10,04,06,12.30
2021,08,10,04,07,12.30
2021,08,10,04,08,12.30
2021,08,10,04,09,12.30
2021,08,10,04,10,12.20
2021,08,10,04,11,12.20
2021,08,10,04,12,12.20
2021,08,10,04,13,12.20
2021,08,10,04,14,12.20
2021,08,10,04,15,12.30
2021,08,10,04,16,12.30
2021,08,10,04,17,12.30
2021,08,10,04,18,12.30
2021,08,10,04,19,12.30
2021,08,10,04,20,12.30
2021,08,10,04,21,12.30
2021,08,10,04,22,12.30
2021,08,10,04,23,12.30
2021,08,10,04,24,12.30
2021,08,10,04,25,12.30
2021,08,10,04,26,12.30
2021,08,10,04,27,12.30
2021,08,10,04,28,12.30
2021,08,10,04,29,12.30
2021,08,10,04,30,12.30
2021,08,10,04,31,12.30
2021,08,10,04,32,12.30
2021,08,10,04,33,12.30
2021,08,10,04,34,12.30
2021,08,10,04,35,12.20
2021,08,10,04,36,12.20
2021,08,10,04,37,12.20
2021,08,10,04,38,12.20
2021,08,10,04,39,12.20
2021,08,10,04,40,12.20
2021,08,10,04,41,12.20
2021,08,10,04,42,12.20
2021,08,10,04,43,12.20
2021,08,10,04,44,12.20
2021,08,10,04,45,12.20
2021,08,10,04,46,12.20
2021,08,10,04,47,12.20
2021,08,10,04,48,12.20
2021,08,10,04,49,12.10
2021,08,10,04,50,12.10
2021,08,10,04,51,12.10
2021,08,10,04,52,12.10
2021,08,10,04,53,12.10
2021,08,10,04,54,12.10
2021,08,10,04,55,12.10
2021,08,10,04,56,12.10
2021,08,10,04,57,12.10
2021,08,10,04,58,12.10
2021,08,10,04,59,12.10
2021,08,10,05,00,12.10
2021,08,10,05,01,12.10
2021,08,10,05,02,12.00
2021,08,10,05,03,12.00
2021,08,10,05,04,12.00
2021,08,10,05,05,12.00
2021,08,10,05,06,12.00
2021,08,10,05,07,11.90
2021,08,10,05,08,11.90
2021,08,10,05,09,11.90
2021,08,10,05,10,11.90
2021,08,10,05,11,11.90
2021,08,10,05,12,11.90
2021,08,10,05,13,11.90
2021,08,10,05,14,11.90
2021,08,10,05,15,11.90
2021,08,10,05,16,11.90
2021,08,10,05,17,11.90
2021,08,10,05,18,11.90
2021,08,10,05,19,11.90
2021,08,10,05,20,11.90
2021,08,10,05,21,11.90
2021,08,10,05,22,11.90
2021,08,10,05,23,11.90
2021,08,10,05,24,11.90
2021,08,10,05,25,11.90
2021,08,10,05,26,11.90
2021,08,10,05,27,11.90
2021,08,10,05,28,11.90
2021,08,10,05,29,11.90
2021,08,10,05,30,11.90
2021,08,10,05,31,11.90
2021,08,10,05,32,11.90
2021,08,10,05,33,11.90
2021,08,10,05,34,11.90
2021,08,10,05,35,11.90
2021,08,10,05,36,11.90
2021,08,10,05,37,11.90
2021,08,10,05,38,11.90
2021,08,10,05,39,11.90
2021,08,10,05,40,11.90
2021,08,10,05,41,11.90
2021,08,10,05,42,11.90
2021,08,10,05,43,11.90
2021,08,10,05,44,11.90
2021,08,10,05,45,11.90
2021,08,10,05,46,11.90
2021,08,10,05,47,11.90
2021,08,10,05,48,11.90
2021,08,10,05,49,11.80
2021,08,10,05,50,11.80
2021,08,10,05,51,11.80
2021,08,10,05,52,11.80
2021,08,10,05,53,11.80
2021,08,10,05,54,11.80
2021,08,10,05,55,11.80
2021,08,10,05,56,11.90
2021,08,10,05,57,11.90
2021,08,10,05,58,11.90
2021,08,10,05,59,11.90
2021,08,10,06,00,11.90
2021,08,10,06,01,11.90
2021,08,10,06,02,11.90
2021,08,10,06,03,11.90
2021,08,10,06,04,11.90
2021,08,10,06,05,11.90
2021,08,10,06,06,11.90
2021,08,10,06,07,11.90
2021,08,10,06,08,11.90
2021,08,10,06,09,11.90
2021,08,10,06,10,11.90
2021,08,10,06,11,11.90
2021,08,10,06,12,11.90
2021,08,10,06,13,11.90
2021,08,10,06,14,12.00
2021,08,10,06,15,12.00
2021,08,10,06,16,12.00
2021,08,10,06,17,12.00
2021,08,10,06,18,12.00
2021,08,10,06,19,12.00
2021,08,10,06,20,12.00
2021,08,10,06,21,12.00
2021,08,10,06,22,12.00
2021,08,10,06,23,12.00
2021,08,10,06,24,12.10
2021,08,10,06,25,12.10
2021,08,10,06,26,12.10
2021,08,10,06,27,12.10
2021,08,10,06,28,12.10
2021,08,10,06,29,12.10
2021,08,10,06,30,12.10
2021,08,10,06,31,12.10
2021,08,10,06,32,12.10
2021,08,10,06,33,12.10
2021,08,10,06,34,12.20
2021,08,10,06,35,12.20
2021,08,10,06,36,12.20
2021,08,10,06,37,12.20
2021,08,10,06,38,12.20
2021,08,10,06,39,12.20
2021,08,10,06,40,12.20
2021,08,10,06,41,12.20
2021,08,10,06,42,12.30
2021,08,10,06,43,12.30
2021,08,10,06,44,12.30
2021,08,10,06,45,12.30
2021,08,10,06,46,12.30
2021,08,10,06,47,12.30
2021,08,10,06,48,12.30
2021,08,10,06,49,12.30
2021,08,10,06,50,12.30
2021,08,10,06,51,12.30
2021,08,10,06,52,12.30
2021,08,10,06,53,12.30
2021,08,10,06,54,12.30
2021,08,10,06,55,12.40
2021,08,10,06,56,12.40
2021,08,10,06,57,12.40
2021,08,10,06,58,12.40
2021,08,10,06,59,12.40
2021,08,10,07,00,12.40
2021,08,10,07,01,12.40
2021,08,10,07,02,12.40
2021,08,10,07,03,12.40
2021,08,10,07,04,12.40
2021,08,10,07,05,12.40
2021,08,10,07,06,12.50
2021,08,10,07,07,12.50
2021,08,10,07,08,12.50
2021,08,10,07,09,12.50
2021,08,10,07,10,12.50
2021,08,10,07,11,12.60
2021,08,10,07,12,12.60
2021,08,10,07,13,12.60
2021,08,10,07,14,12.60
2021,08,10,07,15,12.70
2021,08,10,07,16,12.70
2021,08,10,07,17,12.70
2021,08,10,07,18,12.80
2021,08,10,07,19,12.80
2021,08,10,07,20,12.80
2021,08,10,07,21,12.80
2021,08,10,07,22,12.90
2021,08,10,07,23,12.90
2021,08,10,07,24,13.00
2021,08,10,07,25,13.00
2021,08,10,07,26,13.10
2021,08,10,07,27,13.10
2021,08,10,07,28,13.20
2021,08,10,07,29,13.20
2021,08,10,07,30,13.20
2021,08,10,07,31,13.30
2021,08,10,07,32,13.30
2021,08,10,07,33,13.30
2021,08,10,07,34,13.40
2021,08,10,07,35,13.40
2021,08,10,07,36,13.50
2021,08,10,07,37,13.60
2021,08,10,07,38,13.60
2021,08,10,07,39,13.60
2021,08,10,07,40,13.60
2021,08,10,07,41,13.60
2021,08,10,07,42,13.60
2021,08,10,07,43,13.60
2021,08,10,07,44,13.60
2021,08,10,07,45,13.60
2021,08,10,07,46,13.60
2021,08,10,07,47,13.60
2021,08,10,07,48,13.60
2021,08,10,07,49,13.60
2021,08,10,07,50,13.70
2021,08,10,07,51,13.70
2021,08,10,07,52,13.70
2021,08,10,07,53,13.70
2021,08,10,07,54,13.80
2021,08,10,07,55,13.90
2021,08,10,07,56,13.90
2021,08,10,07,57,14.00
2021,08,10,07,58,14.10
2021,08,10,07,59,14.20
2021,08,10,08,00,14.30
2021,08,10,08,01,14.40
2021,08,10,08,02,14.40
2021,08,10,08,03,14.40
2021,08,10,08,04,14.50
2021,08,10,08,05,14.60
2021,08,10,08,06,14.70
2021,08,10,08,07,14.80
2021,08,10,08,08,14.80
2021,08,10,08,09,14.90
2021,08,10,08,10,15.00
2021,08,10,08,11,15.00
2021,08,10,08,12,15.10
2021,08,10,08,13,15.10
2021,08,10,08,14,15.20
2021,08,10,08,15,15.20
2021,08,10,08,16,15.30
2021,08,10,08,17,15.30
2021,08,10,08,18,15.40
2021,08,10,08,19,15.50
2021,08,10,08,20,15.60
2021,08,10,08,21,15.70
2021,08,10,08,22,15.70
2021,08,10,08,23,15.80
2021,08,10,08,24,15.90
2021,08,10,08,25,16.00
2021,08,10,08,26,16.00
2021,08,10,08,27,16.10
2021,08,10,08,28,16.10
2021,08,10,08,29,16.20
2021,08,10,08,30,16.20
2021,08,10,08,31,16.10
2021,08,10,08,32,16.00
2021,08,10,08,33,15.90
2021,08,10,08,34,15.80
2021,08,10,08,35,15.70
2021,08,10,08,36,15.60
2021,08,10,08,37,15.50
2021,08,10,08,38,15.40
2021,08,10,08,39,15.40
2021,08,10,08,40,15.30
2021,08,10,08,41,15.20
2021,08,10,08,42,15.10
2021,08,10,08,43,15.00
2021,08,10,08,44,15.00
2021,08,10,08,45,14.90
2021,08,10,08,46,14.90
2021,08,10,08,47,14.90
2021,08,10,08,48,14.90
2021,08,10,08,49,15.00
2021,08,10,08,50,15.10
2021,08,10,08,51,15.20
2021,08,10,08,52,15.30
2021,08,10,08,53,15.40
2021,08,10,08,54,15.40
2021,08,10,08,55,15.50
2021,08,10,08,56,15.50
2021,08,10,08,57,15.50
2021,08,10,08,58,15.50
2021,08,10,08,59,15.50
2021,08,10,09,00,15.50
2021,08,10,09,01,15.50
2021,08,10,09,02,15.50
2021,08,10,09,03,15.40
2021,08,10,09,04,15.40
2021,08,10,09,05,15.30
2021,08,10,09,06,15.20
2021,08,10,09,07,15.10
2021,08,10,09,08,15.00
2021,08,10,09,09,15.00
2021,08,10,09,10,14.90
2021,08,10,09,11,14.80
2021,08,10,09,12,14.70
2021,08,10,09,13,14.60
2021,08,10,09,14,14.50
2021,08,10,09,15,14.40
2021,08,10,09,16,14.30
2021,08,10,09,17,14.20
2021,08,10,09,18,14.20
2021,08,10,09,19,14.20
2021,08,10,09,20,14.30
2021,08,10,09,21,14.30
2021,08,10,09,22,14.40
2021,08,10,09,23,14.40
2021,08,10,09,24,14.50
2021,08,10,09,25,14.60
2021,08,10,09,26,14.60
2021,08,10,09,27,14.70
2021,08,10,09,28,14.70
2021,08,10,09,29,14.80
2021,08,10,09,30,14.80
2021,08,10,09,31,14.90
2021,08,10,09,32,14.90
2021,08,10,09,33,15.00
2021,08,10,09,34,15.10
2021,08,10,09,35,15.10
2021,08,10,09,36,15.20
2021,08,10,09,37,15.30
2021,08,10,09,38,15.50
2021,08,10,09,39,15.60
2021,08,10,09,40,15.80
2021,08,10,09,41,15.90
2021,08,10,09,42,16.10
2021,08,10,09,43,16.20
2021,08,10,09,44,16.40
2021,08,10,09,45,16.50
2021,08,10,09,46,16.60
2021,08,10,09,47,16.70
2021,08,10,09,48,16.80
2021,08,10,09,49,16.80
2021,08,10,09,50,16.80
2021,08,10,09,51,16.80
2021,08,10,09,52,16.60
2021,08,10,09,53,16.50
2021,08,10,09,54,16.40
2021,08,10,09,55,16.30
2021,08,10,09,56,16.30
2021,08,10,09,57,16.20
2021,08,10,09,58,16.20
2021,08,10,09,59,16.10
2021,08,10,10,00,16.10
2021,08,10,10,01,16.00
2021,08,10,10,02,16.10
2021,08,10,10,03,16.20
2021,08,10,10,04,16.20
2021,08,10,10,05,16.30
2021,08,10,10,06,16.30
2021,08,10,10,07,16.40
2021,08,10,10,08,16.40
2021,08,10,10,09,16.40
2021,08,10,10,10,16.50
2021,08,10,10,11,16.50
2021,08,10,10,12,16.50
2021,08,10,10,13,16.60
2021,08,10,10,14,16.70
2021,08,10,10,15,16.90
2021,08,10,10,16,17.00
2021,08,10,10,17,17.20
2021,08,10,10,18,17.30
2021,08,10,10,19,17.50
2021,08,10,10,20,17.60
2021,08,10,10,21,17.90
2021,08,10,10,22,18.10
2021,08,10,10,23,18.30
2021,08,10,10,24,18.50
2021,08,10,10,25,18.80
2021,08,10,10,26,19.00
2021,08,10,10,27,19.30
2021,08,10,10,28,19.50
2021,08,10,10,29,19.80
2021,08,10,10,30,19.90
2021,08,10,10,31,20.10
2021,08,10,10,32,20.20
2021,08,10,10,33,20.40
2021,08,10,10,34,20.50
2021,08,10,10,35,20.70
2021,08,10,10,36,20.80
2021,08,10,10,37,20.80
2021,08,10,10,38,20.80
2021,08,10,10,39,20.70
2021,08,10,10,40,20.50
2021,08,10,10,41,20.30
2021,08,10,10,42,19.90
2021,08,10,10,43,19.60
2021,08,10,10,44,19.40
2021,08,10,10,45,19.00
2021,08,10,10,46,18.60
2021,08,10,10,47,18.30
2021,08,10,10,48,18.20
2021,08,10,10,49,18.10
2021,08,10,10,50,18.00
2021,08,10,10,51,18.00
2021,08,10,10,52,18.10
2021,08,10,10,53,18.20
2021,08,10,10,54,18.40
2021,08,10,10,55,18.60
2021,08,10,10,56,18.80
2021,08,10,10,57,19.00
2021,08,10,10,58,19.30
2021,08,10,10,59,19.50
2021,08,10,11,00,19.90
2021,08,10,11,01,20.20
2021,08,10,11,02,20.40
2021,08,10,11,03,20.70
2021,08,10,11,04,20.90
2021,08,10,11,05,21.10
2021,08,10,11,06,21.30
2021,08,10,11,07,21.50
2021,08,10,11,08,21.60
2021,08,10,11,09,21.80
2021,08,10,11,10,21.80
2021,08,10,11,11,21.90
2021,08,10,11,12,21.90
2021,08,10,11,13,21.90
2021,08,10,11,14,22.00
2021,08,10,11,15,22.10
2021,08,10,11,16,22.20
2021,08,10,11,17,22.20
2021,08,10,11,18,22.30
2021,08,10,11,19,22.40
2021,08,10,11,20,22.40
2021,08,10,11,21,22.40
2021,08,10,11,22,22.50
2021,08,10,11,23,22.50
2021,08,10,11,24,22.50
2021,08,10,11,25,22.50
2021,08,10,11,26,22.40
2021,08,10,11,27,22.40
2021,08,10,11,28,22.40
2021,08,10,11,29,22.40
2021,08,10,11,30,22.20
2021,08,10,11,31,21.40
2021,08,10,11,32,20.60
2021,08,10,11,33,19.80
2021,08,10,11,34,19.10
2021,08,10,11,35,18.60
2021,08,10,11,36,18.30
2021,08,10,11,37,18.10
2021,08,10,11,38,18.00
2021,08,10,11,39,17.90
2021,08,10,11,40,17.80
2021,08,10,11,41,17.60
2021,08,10,11,42,17.50
2021,08,10,11,43,17.40
2021,08,10,11,44,17.30
2021,08,10,11,45,17.20
2021,08,10,11,46,16.90
2021,08,10,11,47,16.80
2021,08,10,11,48,16.60
2021,08,10,11,49,16.50
2021,08,10,11,50,16.40
2021,08,10,11,51,16.40
2021,08,10,11,52,16.40
2021,08,10,11,53,16.30
2021,08,10,11,54,16.10
2021,08,10,11,55,15.90
2021,08,10,11,56,15.70
2021,08,10,11,57,15.60
2021,08,10,11,58,15.40
2021,08,10,11,59,15.40
2021,08,10,12,00,15.40
2021,08,10,12,01,15.40
2021,08,10,12,02,15.30
2021,08,10,12,03,15.30
2021,08,10,12,04,15.30
2021,08,10,12,05,15.30
2021,08,10,12,06,15.40
2021,08,10,12,07,15.50
2021,08,10,12,08,15.60
2021,08,10,12,09,15.70
2021,08,10,12,10,15.80
2021,08,10,12,11,15.90
2021,08,10,12,12,16.00
2021,08,10,12,13,16.20
2021,08,10,12,14,16.30
2021,08,10,12,15,16.50
2021,08,10,12,16,16.60
2021,08,10,12,17,16.80
2021,08,10,12,18,16.90
2021,08,10,12,19,16.90
2021,08,10,12,20,16.90
2021,08,10,12,21,16.90
2021,08,10,12,22,16.90
2021,08,10,12,23,17.00
2021,08,10,12,24,17.10
2021,08,10,12,25,17.10
2021,08,10,12,26,17.20
2021,08,10,12,27,17.30
2021,08,10,12,28,17.20
2021,08,10,12,29,17.10
2021,08,10,12,30,17.00
2021,08,10,12,31,16.90
2021,08,10,12,32,16.90
2021,08,10,12,33,16.80
2021,08,10,12,34,16.80
2021,08,10,12,35,16.70
2021,08,10,12,36,16.60
2021,08,10,12,37,16.60
2021,08,10,12,38,16.40
2021,08,10,12,39,16.40
2021,08,10,12,40,16.40
2021,08,10,12,41,16.40
2021,08,10,12,42,16.50
2021,08,10,12,43,16.60
2021,08,10,12,44,16.70
2021,08,10,12,45,16.90
2021,08,10,12,46,17.10
2021,08,10,12,47,17.30
2021,08,10,12,48,17.40
2021,08,10,12,49,17.60
2021,08,10,12,50,17.70
2021,08,10,12,51,17.80
2021,08,10,12,52,17.80
2021,08,10,12,53,17.80
2021,08,10,12,54,17.90
2021,08,10,12,55,18.00
2021,08,10,12,56,18.00
2021,08,10,12,57,18.10
2021,08,10,12,58,18.00
2021,08,10,12,59,17.90
2021,08,10,13,00,17.60
2021,08,10,13,01,17.40
2021,08,10,13,02,17.20
2021,08,10,13,03,17.00
2021,08,10,13,04,16.90
2021,08,10,13,05,16.80
2021,08,10,13,06,16.80
2021,08,10,13,07,16.80
2021,08,10,13,08,16.80
2021,08,10,13,09,16.70
2021,08,10,13,10,16.70
2021,08,10,13,11,16.60
2021,08,10,13,12,16.70
2021,08,10,13,13,16.70
2021,08,10,13,14,16.70
2021,08,10,13,15,16.80
2021,08,10,13,16,16.80
2021,08,10,13,17,16.90
2021,08,10,13,18,16.90
2021,08,10,13,19,17.00
2021,08,10,13,20,17.20
2021,08,10,13,21,17.30
2021,08,10,13,22,17.50
2021,08,10,13,23,17.60
2021,08,10,13,24,17.80
2021,08,10,13,25,17.90
2021,08,10,13,26,17.90
2021,08,10,13,27,17.90
2021,08,10,13,28,17.90
2021,08,10,13,29,17.90
2021,08,10,13,30,17.90
2021,08,10,13,31,17.80
2021,08,10,13,32,17.80
2021,08,10,13,33,17.70
2021,08,10,13,34,17.70
2021,08,10,13,35,17.80
2021,08,10,13,36,17.90
2021,08,10,13,37,18.00
2021,08,10,13,38,18.20
2021,08,10,13,39,18.30
2021,08,10,13,40,18.30
2021,08,10,13,41,18.30
2021,08,10,13,42,18.30
2021,08,10,13,43,18.40
2021,08,10,13,44,18.60
2021,08,10,13,45,18.80
2021,08,10,13,46,19.20
2021,08,10,13,47,19.50
2021,08,10,13,48,19.70
2021,08,10,13,49,20.00
2021,08,10,13,50,20.20
2021,08,10,13,51,20.40
2021,08,10,13,52,20.60
2021,08,10,13,53,20.70
2021,08,10,13,54,20.90
2021,08,10,13,55,21.20
2021,08,10,13,56,21.40
2021,08,10,13,57,21.70
2021,08,10,13,58,22.00
2021,08,10,13,59,22.30
2021,08,10,14,00,22.50
2021,08,10,14,01,22.70
2021,08,10,14,02,22.90
2021,08,10,14,03,23.10
2021,08,10,14,04,23.20
2021,08,10,14,05,23.40
2021,08,10,14,06,23.50
2021,08,10,14,07,23.70
2021,08,10,14,08,23.80
2021,08,10,14,09,23.90
2021,08,10,14,10,24.00
2021,08,10,14,11,24.10
2021,08,10,14,12,24.20
2021,08,10,14,13,24.20
2021,08,10,14,14,24.30
2021,08,10,14,15,24.40
2021,08,10,14,16,24.40
2021,08,10,14,17,24.50
2021,08,10,14,18,24.60
2021,08,10,14,19,24.60
2021,08,10,14,20,24.70
2021,08,10,14,21,24.60
2021,08,10,14,22,24.60
2021,08,10,14,23,24.60
2021,08,10,14,24,24.60
2021,08,10,14,25,24.70
2021,08,10,14,26,24.70
2021,08,10,14,27,24.70
2021,08,10,14,28,24.70
2021,08,10,14,29,24.80
2021,08,10,14,30,24.80
2021,08,10,14,31,24.80
2021,08,10,14,32,24.80
2021,08,10,14,33,24.80
2021,08,10,14,34,24.90
2021,08,10,14,35,24.90
2021,08,10,14,36,24.80
2021,08,10,14,37,24.80
2021,08,10,14,38,24.80
2021,08,10,14,39,24.70
2021,08,10,14,40,24.70
2021,08,10,14,41,24.70
2021,08,10,14,42,24.70
2021,08,10,14,43,24.80
2021,08,10,14,44,24.90
2021,08,10,14,45,25.00
2021,08,10,14,46,25.10
2021,08,10,14,47,25.00
2021,08,10,14,48,24.90
2021,08,10,14,49,24.90
2021,08,10,14,50,25.00
2021,08,10,14,51,25.00
2021,08,10,14,52,25.10
2021,08,10,14,53,25.10
2021,08,10,14,54,25.20
2021,08,10,14,55,25.30
2021,08,10,14,56,25.30
2021,08,10,14,57,25.40
2021,08,10,14,58,25.50
2021,08,10,14,59,25.60
2021,08,10,15,00,25.70
2021,08,10,15,01,25.80
2021,08,10,15,02,25.80
2021,08,10,15,03,25.90
2021,08,10,15,04,25.90
2021,08,10,15,05,25.90
2021,08,10,15,06,25.90
2021,08,10,15,07,25.80
2021,08,10,15,08,25.80
2021,08,10,15,09,25.80
2021,08,10,15,10,25.80
2021,08,10,15,11,25.80
2021,08,10,15,12,25.80
2021,08,10,15,13,25.70
2021,08,10,15,14,25.30
2021,08,10,15,15,24.80
2021,08,10,15,16,24.50
2021,08,10,15,17,24.10
2021,08,10,15,18,23.60
2021,08,10,15,19,23.20
2021,08,10,15,20,22.60
2021,08,10,15,21,22.10
2021,08,10,15,22,21.70
2021,08,10,15,23,21.30
2021,08,10,15,24,21.00
2021,08,10,15,25,20.70
2021,08,10,15,26,20.40
2021,08,10,15,27,20.10
2021,08,10,15,28,19.90
2021,08,10,15,29,19.90
2021,08,10,15,30,19.80
2021,08,10,15,31,19.80
2021,08,10,15,32,19.90
2021,08,10,15,33,20.00
2021,08,10,15,34,20.00
2021,08,10,15,35,20.10
2021,08,10,15,36,20.00
2021,08,10,15,37,19.90
2021,08,10,15,38,19.80
2021,08,10,15,39,19.70
2021,08,10,15,40,19.70
2021,08,10,15,41,19.70
2021,08,10,15,42,19.70
2021,08,10,15,43,19.70
2021,08,10,15,44,19.80
2021,08,10,15,45,19.80
2021,08,10,15,46,19.80
2021,08,10,15,47,19.80
2021,08,10,15,48,19.70
2021,08,10,15,49,19.60
2021,08,10,15,50,19.50
2021,08,10,15,51,19.40
2021,08,10,15,52,19.40
2021,08,10,15,53,19.50
2021,08,10,15,54,19.60
2021,08,10,15,55,19.80
2021,08,10,15,56,19.80
2021,08,10,15,57,19.90
2021,08,10,15,58,20.00
2021,08,10,15,59,20.10
2021,08,10,16,00,20.20
2021,08,10,16,01,20.20
2021,08,10,16,02,20.30
2021,08,10,16,03,20.30
2021,08,10,16,04,20.40
2021,08,10,16,05,20.50
2021,08,10,16,06,20.60
2021,08,10,16,07,20.70
2021,08,10,16,08,20.70
2021,08,10,16,09,20.70
2021,08,10,16,10,20.70
2021,08,10,16,11,20.80
2021,08,10,16,12,20.90
2021,08,10,16,13,20.90
2021,08,10,16,14,20.90
2021,08,10,16,15,21.00
2021,08,10,16,16,21.00
2021,08,10,16,17,21.00
2021,08,10,16,18,21.00
2021,08,10,16,19,20.90
2021,08,10,16,20,20.90
2021,08,10,16,21,20.90
2021,08,10,16,22,21.00
2021,08,10,16,23,21.00
2021,08,10,16,24,21.00
2021,08,10,16,25,21.00
2021,08,10,16,26,21.10
2021,08,10,16,27,21.30
2021,08,10,16,28,21.40
2021,08,10,16,29,21.40
2021,08,10,16,30,21.40
2021,08,10,16,31,21.40
2021,08,10,16,32,21.50
2021,08,10,16,33,21.60
2021,08,10,16,34,21.70
2021,08,10,16,35,21.70
2021,08,10,16,36,21.50
2021,08,10,16,37,21.40
2021,08,10,16,38,21.30
2021,08,10,16,39,21.30
2021,08,10,16,40,21.20
2021,08,10,16,41,21.20
2021,08,10,16,42,21.20
2021,08,10,16,43,21.30
2021,08,10,16,44,21.30
2021,08,10,16,45,21.30
2021,08,10,16,46,21.30
2021,08,10,16,47,21.30
2021,08,10,16,48,21.30
2021,08,10,16,49,21.30
2021,08,10,16,50,21.40
2021,08,10,16,51,21.40
2021,08,10,16,52,21.50
2021,08,10,16,53,21.50
2021,08,10,16,54,21.50
2021,08,10,16,55,21.60
2021,08,10,16,56,21.60
2021,08,10,16,57,21.60
2021,08,10,16,58,21.50
2021,08,10,16,59,21.30
2021,08,10,17,00,21.30
2021,08,10,17,01,21.30
2021,08,10,17,02,21.20
2021,08,10,17,03,21.20
2021,08,10,17,04,21.20
2021,08,10,17,05,21.20
2021,08,10,17,06,21.30
2021,08,10,17,07,21.30
2021,08,10,17,08,21.40
2021,08,10,17,09,21.40
2021,08,10,17,10,21.50
2021,08,10,17,11,21.50
2021,08,10,17,12,21.60
2021,08,10,17,13,21.70
2021,08,10,17,14,21.80
2021,08,10,17,15,21.80
2021,08,10,17,16,21.80
2021,08,10,17,17,21.80
2021,08,10,17,18,21.80
2021,08,10,17,19,21.90
2021,08,10,17,20,22.00
2021,08,10,17,21,22.00
2021,08,10,17,22,22.10